Volver al catálogo

FENGYUN 1C DEB

ActivoSSO
NORAD 36226·DEBRIS·🇨🇳 China

Lanzado May 10, 1999 desde Taiyuan Satellite Launch Center

Loading…

Próximos Pases (próximas 24 horas)

TLE

EnvejeciendoSource: Space-Track

Época: Sep 11, 2026, 07:41 UTC

1 36226U 99025DVB 26254.32037620  .00001303  00000-0  71258-3 0  9999
2 36226  98.5915 290.2590 0093354 324.4310  35.0662 14.11451785676060

Sigue FENGYUN 1C DEB en tiempo real con AllMySat

Download on the App Store